{"data":{"norad_id":57680,"epoch":"2026-05-24T21:39:35.993088Z","epoch_age_seconds":77244,"freshness":"FRESH","line1":"1 57680U 23124T   26144.90249992 -.00001173  00000+0 -27519-4 0  9990","line2":"2 57680  53.1601 212.9858 0001196 107.7345 252.3786 15.30178884155237","mean_motion":15.30178884,"eccentricity":0.0001196,"inclination_deg":53.1601,"raan_deg":212.9858,"arg_perigee_deg":107.7345,"mean_anomaly_deg":252.3786,"bstar":-2.7519e-5,"rev_number":15523,"period_min":94.106644331396,"perigee_km":474.45845026598,"apogee_km":476.09778716238,"semimajor_km":6853.4151187142,"source":"CELESTRAK","updated_at":"2026-05-25T13:38:18.369750Z"}}